PRIVATE WETTERSTATION BILLIGHEIM-ALLFELD                       ZURCK
Wetterdaten: Samstag, 21.06.2014
Datum Zeit Temp. A. Temp. A. min Temp. A. max Feuchte A. Luftdruck Regen Wind Richtung Richtung Sonnenschein ET Solar Taupunkt Windchill Windben Empfang
21.06.2014 00:00 11,1 C 11,0 C 11,1 C 79 % 1017,2 hPa 0,0 l/m 0,0 km/h (0 Bft) N 0 0 min 0,025 mm 0 W/m 7,6 C 11,1 C 0,0 km/h (0 Bft) 98 %
21.06.2014 00:10 10,9 C 10,9 C 11,1 C 79 % 1017,3 hPa 0,0 l/m 0,0 km/h (0 Bft) N-NW 337 0 min 0,000 mm 0 W/m 7,4 C 10,9 C 1,6 km/h (1 Bft) 98 %
21.06.2014 00:20 10,6 C 10,6 C 10,9 C 80 % 1017,2 hPa 0,0 l/m 0,0 km/h (0 Bft) N-NW 337 0 min 0,000 mm 0 W/m 7,3 C 10,6 C 1,6 km/h (1 Bft) 99 %
21.06.2014 00:30 10,6 C 10,6 C 10,6 C 80 % 1017,3 hPa 0,0 l/m 0,0 km/h (0 Bft) N 0 0 min 0,000 mm 0 W/m 7,3 C 10,6 C 0,0 km/h (0 Bft) 97 %
21.06.2014 00:40 10,4 C 10,4 C 10,6 C 80 % 1017,4 hPa 0,0 l/m 0,0 km/h (0 Bft) N 0 0 min 0,000 mm 0 W/m 7,1 C 10,4 C 0,0 km/h (0 Bft) 98 %
21.06.2014 00:50 10,2 C 10,2 C 10,4 C 81 % 1017,3 hPa 0,0 l/m 0,0 km/h (0 Bft) N 0 0 min 0,000 mm 0 W/m 7,1 C 10,2 C 0,0 km/h (0 Bft) 98 %
21.06.2014 01:00 10,0 C 10,0 C 10,2 C 82 % 1017,4 hPa 0,0 l/m 0,0 km/h (0 Bft) N 0 0 min 0,025 mm 0 W/m 7,1 C 10,0 C 0,0 km/h (0 Bft) 97 %
21.06.2014 01:10 9,9 C 9,9 C 10,0 C 83 % 1017,3 hPa 0,0 l/m 0,0 km/h (0 Bft) N 0 0 min 0,000 mm 0 W/m 7,2 C 9,9 C 0,0 km/h (0 Bft) 98 %
21.06.2014 01:20 9,8 C 9,8 C 9,9 C 83 % 1017,3 hPa 0,0 l/m 0,0 km/h (0 Bft) N-NW 337 0 min 0,000 mm 0 W/m 7,1 C 9,8 C 1,6 km/h (1 Bft) 97 %
21.06.2014 01:30 9,6 C 9,6 C 9,8 C 83 % 1017,3 hPa 0,0 l/m 0,0 km/h (0 Bft) N-NW 337 0 min 0,000 mm 0 W/m 6,9 C 9,6 C 1,6 km/h (1 Bft) 97 %
21.06.2014 01:40 9,4 C 9,4 C 9,6 C 83 % 1017,3 hPa 0,0 l/m 0,0 km/h (0 Bft) N 0 0 min 0,000 mm 0 W/m 6,7 C 9,4 C 0,0 km/h (0 Bft) 98 %
21.06.2014 01:50 9,3 C 9,3 C 9,4 C 84 % 1017,3 hPa 0,0 l/m 0,0 km/h (0 Bft) N 0 0 min 0,000 mm 0 W/m 6,7 C 9,3 C 0,0 km/h (0 Bft) 98 %
21.06.2014 02:00 9,1 C 9,1 C 9,3 C 84 % 1017,4 hPa 0,0 l/m 0,0 km/h (0 Bft) N-NW 337 0 min 0,000 mm 0 W/m 6,5 C 9,1 C 1,6 km/h (1 Bft) 98 %
21.06.2014 02:10 9,0 C 9,0 C 9,1 C 84 % 1017,4 hPa 0,0 l/m 0,0 km/h (0 Bft) N-NW 337 0 min 0,000 mm 0 W/m 6,4 C 9,0 C 1,6 km/h (1 Bft) 96 %
21.06.2014 02:20 8,8 C 8,8 C 9,0 C 85 % 1017,4 hPa 0,0 l/m 0,0 km/h (0 Bft) N 0 0 min 0,000 mm 0 W/m 6,4 C 8,8 C 0,0 km/h (0 Bft) 98 %
21.06.2014 02:30 8,7 C 8,7 C 8,8 C 85 % 1017,4 hPa 0,0 l/m 0,0 km/h (0 Bft) N 0 0 min 0,000 mm 0 W/m 6,3 C 8,7 C 0,0 km/h (0 Bft) 97 %
21.06.2014 02:40 8,6 C 8,6 C 8,7 C 86 % 1017,5 hPa 0,0 l/m 0,0 km/h (0 Bft) N 0 0 min 0,000 mm 0 W/m 6,4 C 8,6 C 0,0 km/h (0 Bft) 98 %
21.06.2014 02:50 8,5 C 8,5 C 8,6 C 86 % 1017,5 hPa 0,0 l/m 0,0 km/h (0 Bft) N 0 0 min 0,000 mm 0 W/m 6,3 C 8,5 C 0,0 km/h (0 Bft) 98 %
21.06.2014 03:00 8,4 C 8,4 C 8,5 C 86 % 1017,6 hPa 0,0 l/m 0,0 km/h (0 Bft) N 0 0 min 0,000 mm 0 W/m 6,2 C 8,4 C 0,0 km/h (0 Bft) 89 %
21.06.2014 03:10 8,3 C 8,3 C 8,4 C 86 % 1017,6 hPa 0,0 l/m 0,0 km/h (0 Bft) N 0 0 min 0,000 mm 0 W/m 6,1 C 8,3 C 0,0 km/h (0 Bft) 99 %
21.06.2014 03:20 8,2 C 8,2 C 8,3 C 86 % 1017,7 hPa 0,0 l/m 0,0 km/h (0 Bft) N 0 0 min 0,000 mm 0 W/m 6,0 C 8,2 C 0,0 km/h (0 Bft) 99 %
21.06.2014 03:30 8,2 C 8,2 C 8,2 C 86 % 1017,7 hPa 0,0 l/m 0,0 km/h (0 Bft) N 0 0 min 0,000 mm 0 W/m 6,0 C 8,2 C 0,0 km/h (0 Bft) 100 %
21.06.2014 03:40 8,3 C 8,2 C 8,3 C 86 % 1017,7 hPa 0,0 l/m 0,0 km/h (0 Bft) N 0 0 min 0,000 mm 0 W/m 6,1 C 8,3 C 0,0 km/h (0 Bft) 100 %
21.06.2014 03:50 8,4 C 8,3 C 8,4 C 86 % 1017,7 hPa 0,0 l/m 0,0 km/h (0 Bft) N 0 0 min 0,000 mm 0 W/m 6,2 C 8,4 C 0,0 km/h (0 Bft) 100 %
21.06.2014 04:00 8,4 C 8,4 C 8,4 C 86 % 1017,7 hPa 0,0 l/m 0,0 km/h (0 Bft) N-NW 337 0 min 0,000 mm 0 W/m 6,2 C 8,4 C 1,6 km/h (1 Bft) 99 %
21.06.2014 04:10 8,4 C 8,4 C 8,4 C 86 % 1017,7 hPa 0,0 l/m 0,0 km/h (0 Bft) N 0 0 min 0,000 mm 0 W/m 6,2 C 8,4 C 0,0 km/h (0 Bft) 100 %
21.06.2014 04:20 8,4 C 8,4 C 8,4 C 86 % 1017,7 hPa 0,0 l/m 0,0 km/h (0 Bft) N-NW 337 0 min 0,000 mm 0 W/m 6,2 C 8,4 C 1,6 km/h (1 Bft) 100 %
21.06.2014 04:30 8,5 C 8,4 C 8,5 C 86 % 1017,7 hPa 0,0 l/m 0,0 km/h (0 Bft) N 0 0 min 0,000 mm 0 W/m 6,3 C 8,5 C 0,0 km/h (0 Bft) 100 %
21.06.2014 04:40 8,4 C 8,4 C 8,5 C 87 % 1017,7 hPa 0,0 l/m 0,0 km/h (0 Bft) N 0 0 min 0,000 mm 0 W/m 6,4 C 8,4 C 0,0 km/h (0 Bft) 100 %
21.06.2014 04:50 8,4 C 8,4 C 8,5 C 87 % 1017,7 hPa 0,0 l/m 0,0 km/h (0 Bft) N 0 0 min 0,000 mm 0 W/m 6,4 C 8,4 C 0,0 km/h (0 Bft) 99 %
21.06.2014 05:00 8,5 C 8,5 C 8,5 C 87 % 1017,6 hPa 0,0 l/m 0,0 km/h (0 Bft) N 0 0 min 0,000 mm 0 W/m 6,5 C 8,5 C 0,0 km/h (0 Bft) 100 %
21.06.2014 05:10 8,6 C 8,5 C 8,6 C 87 % 1017,6 hPa 0,0 l/m 0,0 km/h (0 Bft) N 0 0 min 0,000 mm 0 W/m 6,6 C 8,6 C 0,0 km/h (0 Bft) 100 %
21.06.2014 05:20 8,6 C 8,6 C 8,6 C 87 % 1017,6 hPa 0,0 l/m 0,0 km/h (0 Bft) N 0 0 min 0,000 mm 0 W/m 6,6 C 8,6 C 0,0 km/h (0 Bft) 100 %
21.06.2014 05:30 8,6 C 8,6 C 8,6 C 87 % 1017,5 hPa 0,0 l/m 0,0 km/h (0 Bft) N 0 0 min 0,000 mm 7 W/m 6,6 C 8,6 C 0,0 km/h (0 Bft) 99 %
21.06.2014 05:40 8,6 C 8,6 C 8,6 C 87 % 1017,5 hPa 0,0 l/m 0,0 km/h (0 Bft) N 0 0 min 0,000 mm 12 W/m 6,6 C 8,6 C 0,0 km/h (0 Bft) 100 %
21.06.2014 05:50 8,6 C 8,6 C 8,6 C 87 % 1017,6 hPa 0,0 l/m 0,0 km/h (0 Bft) N 0 0 min 0,000 mm 16 W/m 6,6 C 8,6 C 0,0 km/h (0 Bft) 100 %
21.06.2014 06:00 8,6 C 8,6 C 8,6 C 87 % 1017,6 hPa 0,0 l/m 0,0 km/h (0 Bft) N 0 0 min 0,000 mm 18 W/m 6,6 C 8,6 C 0,0 km/h (0 Bft) 99 %
21.06.2014 06:10 8,7 C 8,6 C 8,7 C 87 % 1017,8 hPa 0,0 l/m 0,0 km/h (0 Bft) N-NW 337 0 min 0,000 mm 33 W/m 6,7 C 8,7 C 1,6 km/h (1 Bft) 100 %
21.06.2014 06:20 8,6 C 8,6 C 8,7 C 87 % 1017,8 hPa 0,0 l/m 0,0 km/h (0 Bft) N 0 0 min 0,000 mm 40 W/m 6,6 C 8,6 C 0,0 km/h (0 Bft) 100 %
21.06.2014 06:30 8,8 C 8,6 C 8,8 C 87 % 1017,8 hPa 0,0 l/m 0,0 km/h (0 Bft) N 0 0 min 0,000 mm 42 W/m 6,8 C 8,8 C 0,0 km/h (0 Bft) 100 %
21.06.2014 06:40 9,1 C 8,8 C 9,1 C 87 % 1017,9 hPa 0,0 l/m 0,0 km/h (0 Bft) N-NW 337 0 min 0,000 mm 56 W/m 7,1 C 9,1 C 1,6 km/h (1 Bft) 100 %
21.06.2014 06:50 9,2 C 9,0 C 9,2 C 87 % 1017,8 hPa 0,0 l/m 0,0 km/h (0 Bft) N 0 0 min 0,000 mm 63 W/m 7,2 C 9,2 C 0,0 km/h (0 Bft) 100 %
21.06.2014 07:00 9,5 C 9,2 C 9,5 C 87 % 1017,8 hPa 0,0 l/m 0,0 km/h (0 Bft) N-NW 337 0 min 0,025 mm 74 W/m 7,4 C 9,5 C 1,6 km/h (1 Bft) 100 %
21.06.2014 07:10 9,8 C 9,5 C 9,8 C 87 % 1017,9 hPa 0,0 l/m 0,0 km/h (0 Bft) N-NW 337 0 min 0,000 mm 83 W/m 7,7 C 9,8 C 3,2 km/h (1 Bft) 99 %
21.06.2014 07:20 10,0 C 9,8 C 10,1 C 87 % 1018,0 hPa 0,0 l/m 0,0 km/h (0 Bft) N-NW 337 0 min 0,000 mm 93 W/m 7,9 C 10,0 C 1,6 km/h (1 Bft) 100 %
21.06.2014 07:30 10,2 C 10,0 C 10,2 C 87 % 1018,0 hPa 0,0 l/m 0,0 km/h (0 Bft) N 0 0 min 0,000 mm 118 W/m 8,1 C 10,2 C 0,0 km/h (0 Bft) 100 %
21.06.2014 07:40 10,4 C 10,2 C 10,4 C 86 % 1018,1 hPa 0,0 l/m 0,0 km/h (0 Bft) N-NW 337 0 min 0,000 mm 146 W/m 8,2 C 10,4 C 3,2 km/h (1 Bft) 100 %
21.06.2014 07:50 10,8 C 10,4 C 10,8 C 86 % 1018,2 hPa 0,0 l/m 0,0 km/h (0 Bft) N-NW 337 10 min 0,000 mm 155 W/m 8,6 C 10,8 C 1,6 km/h (1 Bft) 99 %
21.06.2014 08:00 11,3 C 10,8 C 11,3 C 86 % 1018,2 hPa 0,0 l/m 0,0 km/h (0 Bft) N 0 10 min 0,051 mm 183 W/m 9,0 C 11,3 C 0,0 km/h (0 Bft) 100 %
21.06.2014 08:10 11,6 C 11,2 C 11,6 C 84 % 1018,3 hPa 0,0 l/m 0,0 km/h (0 Bft) N 0 10 min 0,000 mm 206 W/m 9,0 C 11,6 C 0,0 km/h (0 Bft) 100 %
21.06.2014 08:20 12,2 C 11,6 C 12,2 C 83 % 1018,1 hPa 0,0 l/m 0,0 km/h (0 Bft) N-NW 337 10 min 0,000 mm 304 W/m 9,4 C 12,2 C 3,2 km/h (1 Bft) 100 %
21.06.2014 08:30 12,8 C 12,2 C 12,8 C 81 % 1018,1 hPa 0,0 l/m 0,0 km/h (0 Bft) N-NW 337 10 min 0,000 mm 311 W/m 9,6 C 12,8 C 3,2 km/h (1 Bft) 99 %
21.06.2014 08:40 13,6 C 12,8 C 13,6 C 79 % 1018,1 hPa 0,0 l/m 0,0 km/h (0 Bft) N-NW 337 10 min 0,000 mm 434 W/m 10,0 C 13,6 C 3,2 km/h (1 Bft) 100 %
21.06.2014 08:50 14,3 C 13,6 C 14,3 C 78 % 1018,1 hPa 0,0 l/m 0,0 km/h (0 Bft) NW 315 10 min 0,000 mm 388 W/m 10,5 C 14,3 C 6,4 km/h (2 Bft) 100 %
21.06.2014 09:00 14,9 C 14,3 C 14,9 C 73 % 1018,0 hPa 0,0 l/m 0,0 km/h (0 Bft) NW 315 10 min 0,152 mm 462 W/m 10,1 C 14,9 C 1,6 km/h (1 Bft) 89 %
21.06.2014 09:10 15,6 C 14,9 C 15,6 C 72 % 1017,9 hPa 0,0 l/m 0,0 km/h (0 Bft) NW 315 10 min 0,000 mm 527 W/m 10,6 C 15,6 C 8,0 km/h (2 Bft) 99 %
21.06.2014 09:20 16,1 C 15,7 C 16,1 C 69 % 1017,9 hPa 0,0 l/m 0,0 km/h (0 Bft) W-NW 292 10 min 0,000 mm 519 W/m 10,4 C 16,1 C 3,2 km/h (1 Bft) 100 %
21.06.2014 09:30 16,5 C 16,1 C 16,5 C 68 % 1017,9 hPa 0,0 l/m 0,0 km/h (0 Bft) NW 315 10 min 0,000 mm 564 W/m 10,6 C 16,5 C 6,4 km/h (2 Bft) 100 %
21.06.2014 09:40 17,3 C 16,6 C 17,3 C 63 % 1017,9 hPa 0,0 l/m 1,6 km/h (1 Bft) NW 315 10 min 0,000 mm 594 W/m 10,2 C 17,3 C 4,8 km/h (1 Bft) 100 %
21.06.2014 09:50 17,8 C 17,3 C 17,8 C 60 % 1017,8 hPa 0,0 l/m 0,0 km/h (0 Bft) W-NW 292 10 min 0,000 mm 642 W/m 9,9 C 17,8 C 4,8 km/h (1 Bft) 100 %
21.06.2014 10:00 17,8 C 17,8 C 17,9 C 60 % 1017,8 hPa 0,0 l/m 1,6 km/h (1 Bft) W-NW 292 10 min 0,279 mm 559 W/m 9,9 C 17,8 C 6,4 km/h (2 Bft) 100 %
21.06.2014 10:10 17,6 C 17,6 C 17,8 C 62 % 1017,8 hPa 0,0 l/m 0,0 km/h (0 Bft) W-NW 292 10 min 0,000 mm 712 W/m 10,2 C 17,6 C 4,8 km/h (1 Bft) 99 %
21.06.2014 10:20 17,6 C 17,6 C 17,7 C 62 % 1017,8 hPa 0,0 l/m 1,6 km/h (1 Bft) S-SW 202 10 min 0,000 mm 756 W/m 10,2 C 17,6 C 9,7 km/h (2 Bft) 100 %
21.06.2014 10:30 18,0 C 17,6 C 18,1 C 60 % 1017,8 hPa 0,0 l/m 1,6 km/h (1 Bft) S 180 10 min 0,000 mm 777 W/m 10,1 C 18,0 C 8,0 km/h (2 Bft) 100 %
21.06.2014 10:40 18,0 C 17,8 C 18,0 C 58 % 1017,8 hPa 0,0 l/m 3,2 km/h (1 Bft) O-SO 112 10 min 0,000 mm 856 W/m 9,6 C 18,0 C 9,7 km/h (2 Bft) 100 %
21.06.2014 10:50 18,2 C 18,0 C 18,2 C 59 % 1017,9 hPa 0,0 l/m 4,8 km/h (1 Bft) S-SW 202 10 min 0,000 mm 691 W/m 10,1 C 18,2 C 14,5 km/h (3 Bft) 100 %
21.06.2014 11:00 18,0 C 18,0 C 18,3 C 59 % 1017,8 hPa 0,0 l/m 1,6 km/h (1 Bft) S-SW 202 10 min 0,305 mm 309 W/m 9,9 C 18,0 C 8,0 km/h (2 Bft) 99 %
21.06.2014 11:10 17,6 C 17,6 C 18,0 C 54 % 1017,8 hPa 0,0 l/m 0,0 km/h (0 Bft) W 270 10 min 0,000 mm 329 W/m 8,2 C 17,6 C 4,8 km/h (1 Bft) 99 %
21.06.2014 11:20 17,6 C 17,6 C 17,6 C 58 % 1017,8 hPa 0,0 l/m 3,2 km/h (1 Bft) W-NW 292 10 min 0,000 mm 295 W/m 9,2 C 17,6 C 9,7 km/h (2 Bft) 99 %
21.06.2014 11:30 17,9 C 17,6 C 17,9 C 54 % 1017,8 hPa 0,0 l/m 1,2 km/h (1 Bft) S-SW 213 10 min 0,000 mm 487 W/m 8,5 C 17,9 C 8,0 km/h (2 Bft) 97 %
21.06.2014 11:40 18,5 C 17,8 C 18,5 C 55 % 1017,8 hPa 0,0 l/m 1,5 km/h (1 Bft) W-SW 237 10 min 0,000 mm 816 W/m 9,3 C 18,5 C 8,0 km/h (2 Bft) 97 %
21.06.2014 11:50 19,2 C 18,5 C 19,2 C 48 % 1017,6 hPa 0,0 l/m 0,7 km/h (0 Bft) SW 227 10 min 0,000 mm 914 W/m 7,9 C 19,2 C 8,0 km/h (2 Bft) 98 %
21.06.2014 12:00 19,6 C 19,2 C 19,6 C 48 % 1017,5 hPa 0,0 l/m 1,1 km/h (1 Bft) S-SW 192 10 min 0,000 mm 281 W/m 8,3 C 19,6 C 11,3 km/h (2 Bft) 97 %
21.06.2014 12:10 18,8 C 18,8 C 19,6 C 50 % 1017,5 hPa 0,0 l/m 3,6 km/h (1 Bft) W 261 10 min 0,306 mm 206 W/m 8,2 C 18,8 C 9,7 km/h (2 Bft) 97 %
21.06.2014 12:20 18,5 C 18,5 C 18,8 C 49 % 1017,6 hPa 0,0 l/m 4,3 km/h (1 Bft) NW 306 10 min 0,000 mm 269 W/m 7,6 C 18,5 C 11,3 km/h (2 Bft) 98 %
21.06.2014 12:30 18,5 C 18,4 C 18,5 C 50 % 1017,5 hPa 0,0 l/m 0,0 km/h (0 Bft) NW 306 10 min 0,000 mm 295 W/m 7,9 C 18,5 C 1,6 km/h (1 Bft) 98 %
21.06.2014 12:40 18,6 C 18,5 C 18,6 C 51 % 1017,5 hPa 0,0 l/m 2,3 km/h (1 Bft) NW 323 10 min 0,000 mm 299 W/m 8,3 C 18,6 C 6,4 km/h (2 Bft) 97 %
21.06.2014 12:50 18,6 C 18,6 C 18,6 C 53 % 1017,5 hPa 0,0 l/m 4,2 km/h (1 Bft) W-NW 301 10 min 0,000 mm 352 W/m 8,8 C 18,6 C 11,3 km/h (2 Bft) 97 %
21.06.2014 13:00 18,7 C 18,6 C 18,7 C 49 % 1017,3 hPa 0,0 l/m 4,7 km/h (1 Bft) N-NW 335 10 min 0,000 mm 411 W/m 7,8 C 18,7 C 12,9 km/h (3 Bft) 98 %
21.06.2014 13:10 18,9 C 18,7 C 18,9 C 52 % 1017,2 hPa 0,0 l/m 1,1 km/h (1 Bft) N-NW 346 10 min 0,203 mm 489 W/m 8,8 C 18,9 C 8,0 km/h (2 Bft) 97 %
21.06.2014 13:20 19,3 C 18,9 C 19,3 C 49 % 1017,3 hPa 0,0 l/m 2,0 km/h (1 Bft) NW 304 10 min 0,001 mm 439 W/m 8,3 C 19,3 C 9,7 km/h (2 Bft) 98 %
21.06.2014 13:30 19,4 C 19,3 C 19,4 C 53 % 1017,3 hPa 0,0 l/m 6,3 km/h (2 Bft) N-NW 344 10 min 0,000 mm 350 W/m 9,6 C 19,4 C 14,5 km/h (3 Bft) 97 %
21.06.2014 13:40 19,4 C 19,4 C 19,4 C 50 % 1017,2 hPa 0,0 l/m 4,2 km/h (1 Bft) NW 319 10 min 0,000 mm 381 W/m 8,7 C 19,4 C 12,9 km/h (3 Bft) 97 %
21.06.2014 13:50 19,5 C 19,4 C 19,5 C 52 % 1017,1 hPa 0,0 l/m 2,3 km/h (1 Bft) N 5 10 min 0,000 mm 429 W/m 9,4 C 19,5 C 11,3 km/h (2 Bft) 98 %
21.06.2014 14:00 19,4 C 19,4 C 19,5 C 52 % 1017,2 hPa 0,0 l/m 1,3 km/h (1 Bft) N-NW 333 10 min 0,279 mm 436 W/m 9,3 C 19,4 C 8,0 km/h (2 Bft) 97 %
21.06.2014 14:10 19,4 C 19,4 C 19,4 C 49 % 1017,1 hPa 0,0 l/m 0,0 km/h (0 Bft) N-NW 333 10 min 0,000 mm 462 W/m 8,4 C 19,4 C 1,6 km/h (1 Bft) 98 %
21.06.2014 14:20 19,4 C 19,3 C 19,4 C 52 % 1017,0 hPa 0,0 l/m 0,3 km/h (0 Bft) NW 305 10 min 0,000 mm 503 W/m 9,3 C 19,4 C 4,8 km/h (1 Bft) 97 %
21.06.2014 14:30 19,9 C 19,4 C 19,9 C 48 % 1017,1 hPa 0,0 l/m 1,6 km/h (1 Bft) W-NW 289 10 min 0,000 mm 388 W/m 8,6 C 19,9 C 8,0 km/h (2 Bft) 98 %
21.06.2014 14:40 19,9 C 19,9 C 20,0 C 48 % 1017,1 hPa 0,0 l/m 2,2 km/h (1 Bft) W-SW 255 10 min 0,000 mm 264 W/m 8,6 C 19,9 C 9,7 km/h (2 Bft) 97 %
21.06.2014 14:50 19,8 C 19,8 C 19,9 C 52 % 1017,1 hPa 0,0 l/m 2,2 km/h (1 Bft) NW 311 10 min 0,000 mm 327 W/m 9,7 C 19,8 C 8,0 km/h (2 Bft) 98 %
21.06.2014 15:00 20,1 C 19,8 C 20,1 C 50 % 1017,0 hPa 0,0 l/m 0,0 km/h (0 Bft) NW 311 10 min 0,279 mm 545 W/m 9,3 C 20,1 C 1,6 km/h (1 Bft) 97 %
21.06.2014 15:10 20,2 C 20,1 C 20,3 C 48 % 1017,0 hPa 0,0 l/m 1,4 km/h (1 Bft) NW 324 10 min 0,000 mm 325 W/m 8,8 C 20,2 C 9,7 km/h (2 Bft) 97 %
21.06.2014 15:20 20,1 C 20,1 C 20,2 C 47 % 1017,0 hPa 0,0 l/m 2,0 km/h (1 Bft) N-NW 344 10 min 0,000 mm 387 W/m 8,4 C 20,1 C 11,3 km/h (2 Bft) 98 %
21.06.2014 15:30 20,4 C 20,1 C 20,4 C 49 % 1017,0 hPa 0,0 l/m 6,0 km/h (2 Bft) W-NW 298 10 min 0,000 mm 334 W/m 9,3 C 20,4 C 19,3 km/h (3 Bft) 97 %
21.06.2014 15:40 20,4 C 20,3 C 20,4 C 48 % 1016,9 hPa 0,0 l/m 1,6 km/h (1 Bft) NW 315 10 min 0,000 mm 346 W/m 9,0 C 20,4 C 8,0 km/h (2 Bft) 90 %
21.06.2014 15:50 21,3 C 20,4 C 21,3 C 46 % 1016,8 hPa 0,0 l/m 5,8 km/h (2 Bft) NW 304 10 min 0,000 mm 833 W/m 9,2 C 21,3 C 12,9 km/h (3 Bft) 98 %
21.06.2014 16:00 21,8 C 21,3 C 21,8 C 44 % 1016,9 hPa 0,0 l/m 6,9 km/h (2 Bft) W 277 10 min 0,356 mm 795 W/m 9,0 C 21,6 C 17,7 km/h (3 Bft) 97 %
21.06.2014 16:10 21,8 C 21,8 C 22,0 C 43 % 1016,8 hPa 0,0 l/m 3,6 km/h (1 Bft) SW 223 10 min 0,000 mm 253 W/m 8,7 C 21,8 C 14,5 km/h (3 Bft) 97 %
21.06.2014 16:20 21,3 C 21,3 C 21,8 C 44 % 1016,6 hPa 0,0 l/m 1,0 km/h (0 Bft) W-SW 252 0 min 0,000 mm 144 W/m 8,5 C 21,3 C 6,4 km/h (2 Bft) 98 %
21.06.2014 16:30 20,6 C 20,6 C 21,3 C 47 % 1016,6 hPa 0,0 l/m 1,1 km/h (1 Bft) SW 220 10 min 0,000 mm 220 W/m 8,9 C 20,6 C 8,0 km/h (2 Bft) 98 %
21.06.2014 16:40 20,7 C 20,5 C 20,7 C 46 % 1016,4 hPa 0,0 l/m 0,9 km/h (0 Bft) N-NO 33 10 min 0,000 mm 666 W/m 8,7 C 20,7 C 8,0 km/h (2 Bft) 97 %
21.06.2014 16:50 20,9 C 20,7 C 21,0 C 46 % 1016,4 hPa 0,0 l/m 0,2 km/h (0 Bft) NO 43 10 min 0,000 mm 174 W/m 8,8 C 20,9 C 4,8 km/h (1 Bft) 97 %
21.06.2014 17:00 21,2 C 20,9 C 21,2 C 48 % 1016,4 hPa 0,0 l/m 5,8 km/h (2 Bft) NW 317 10 min 0,305 mm 526 W/m 9,7 C 21,2 C 16,1 km/h (3 Bft) 97 %
21.06.2014 17:10 21,4 C 21,2 C 21,4 C 45 % 1016,3 hPa 0,0 l/m 0,8 km/h (0 Bft) NW 315 10 min 0,000 mm 338 W/m 9,0 C 21,4 C 6,4 km/h (2 Bft) 97 %
21.06.2014 17:20 21,5 C 21,4 C 21,5 C 45 % 1016,3 hPa 0,0 l/m 2,4 km/h (1 Bft) W 279 10 min 0,000 mm 575 W/m 9,1 C 21,5 C 16,1 km/h (3 Bft) 98 %
21.06.2014 17:30 21,5 C 21,5 C 21,6 C 43 % 1016,3 hPa 0,0 l/m 3,0 km/h (1 Bft) SW 221 10 min 0,000 mm 197 W/m 8,4 C 21,5 C 11,3 km/h (2 Bft) 97 %
21.06.2014 17:40 21,5 C 21,3 C 21,5 C 44 % 1016,3 hPa 0,0 l/m 2,2 km/h (1 Bft) W-NW 290 10 min 0,000 mm 343 W/m 8,7 C 21,5 C 12,9 km/h (3 Bft) 98 %
21.06.2014 17:50 21,7 C 21,5 C 21,7 C 43 % 1016,3 hPa 0,0 l/m 4,6 km/h (1 Bft) S-SW 205 10 min 0,000 mm 489 W/m 8,6 C 21,7 C 12,9 km/h (3 Bft) 97 %
21.06.2014 18:00 21,8 C 21,6 C 21,8 C 45 % 1016,1 hPa 0,0 l/m 7,2 km/h (2 Bft) NW 309 10 min 0,279 mm 461 W/m 9,3 C 21,5 C 17,7 km/h (3 Bft) 98 %
21.06.2014 18:10 21,8 C 21,7 C 21,8 C 45 % 1016,1 hPa 0,0 l/m 3,0 km/h (1 Bft) W-NW 295 10 min 0,000 mm 169 W/m 9,3 C 21,8 C 11,3 km/h (2 Bft) 97 %
21.06.2014 18:20 21,7 C 21,7 C 21,8 C 44 % 1016,0 hPa 0,0 l/m 3,5 km/h (1 Bft) NW 304 10 min 0,000 mm 410 W/m 8,9 C 21,7 C 9,7 km/h (2 Bft) 97 %
21.06.2014 18:30 21,7 C 21,6 C 21,7 C 44 % 1016,0 hPa 0,0 l/m 5,9 km/h (2 Bft) W-NW 296 10 min 0,000 mm 158 W/m 8,9 C 21,7 C 11,3 km/h (2 Bft) 98 %
21.06.2014 18:40 21,5 C 21,5 C 21,7 C 44 % 1016,1 hPa 0,0 l/m 3,5 km/h (1 Bft) NW 308 10 min 0,000 mm 223 W/m 8,7 C 21,5 C 11,3 km/h (2 Bft) 97 %
21.06.2014 18:50 21,0 C 21,0 C 21,5 C 46 % 1016,1 hPa 0,0 l/m 3,4 km/h (1 Bft) NW 318 10 min 0,000 mm 329 W/m 8,9 C 21,0 C 14,5 km/h (3 Bft) 98 %
21.06.2014 19:00 20,9 C 20,9 C 21,0 C 46 % 1016,1 hPa 0,0 l/m 2,4 km/h (1 Bft) W-NW 290 10 min 0,203 mm 308 W/m 8,8 C 20,9 C 11,3 km/h (2 Bft) 98 %
21.06.2014 19:10 20,8 C 20,8 C 20,9 C 46 % 1016,0 hPa 0,0 l/m 5,9 km/h (2 Bft) NW 318 10 min 0,000 mm 279 W/m 8,8 C 20,8 C 16,1 km/h (3 Bft) 97 %
21.06.2014 19:20 20,4 C 20,4 C 20,8 C 47 % 1016,1 hPa 0,0 l/m 6,1 km/h (2 Bft) NW 317 0 min 0,000 mm 84 W/m 8,7 C 20,4 C 16,1 km/h (3 Bft) 98 %
21.06.2014 19:30 20,2 C 20,2 C 20,4 C 48 % 1016,1 hPa 0,0 l/m 3,8 km/h (1 Bft) NW 309 10 min 0,000 mm 200 W/m 8,8 C 20,2 C 12,9 km/h (3 Bft) 98 %
21.06.2014 19:40 20,4 C 20,2 C 20,4 C 47 % 1016,1 hPa 0,0 l/m 7,6 km/h (2 Bft) NW 306 10 min 0,000 mm 181 W/m 8,7 C 19,9 C 22,5 km/h (4 Bft) 97 %
21.06.2014 19:50 20,2 C 20,1 C 20,4 C 49 % 1016,2 hPa 0,0 l/m 6,2 km/h (2 Bft) N-NW 329 0 min 0,000 mm 76 W/m 9,1 C 20,2 C 19,3 km/h (3 Bft) 97 %
21.06.2014 20:00 20,0 C 20,0 C 20,2 C 51 % 1016,2 hPa 0,0 l/m 5,1 km/h (1 Bft) N-NW 344 0 min 0,127 mm 70 W/m 9,6 C 20,0 C 14,5 km/h (3 Bft) 98 %
21.06.2014 20:10 19,8 C 19,8 C 20,0 C 49 % 1016,3 hPa 0,0 l/m 3,8 km/h (1 Bft) N-NO 17 0 min 0,000 mm 51 W/m 8,8 C 19,8 C 14,5 km/h (3 Bft) 97 %
21.06.2014 20:20 19,4 C 19,4 C 19,8 C 51 % 1016,3 hPa 0,0 l/m 3,1 km/h (1 Bft) NW 323 0 min 0,000 mm 35 W/m 9,0 C 19,4 C 11,3 km/h (2 Bft) 98 %
21.06.2014 20:30 19,0 C 19,0 C 19,4 C 52 % 1016,4 hPa 0,0 l/m 1,9 km/h (1 Bft) NW 314 0 min 0,000 mm 30 W/m 8,9 C 19,0 C 16,1 km/h (3 Bft) 97 %
21.06.2014 20:40 18,5 C 18,5 C 19,0 C 54 % 1016,4 hPa 0,0 l/m 0,2 km/h (0 Bft) NW 325 0 min 0,000 mm 25 W/m 9,0 C 18,5 C 6,4 km/h (2 Bft) 97 %
21.06.2014 20:50 18,0 C 18,0 C 18,5 C 55 % 1016,5 hPa 0,0 l/m 0,2 km/h (0 Bft) N-NW 332 0 min 0,000 mm 19 W/m 8,8 C 18,0 C 9,7 km/h (2 Bft) 97 %
21.06.2014 21:00 17,5 C 17,5 C 18,0 C 57 % 1016,7 hPa 0,0 l/m 0,2 km/h (0 Bft) NO 43 0 min 0,051 mm 16 W/m 8,9 C 17,5 C 6,4 km/h (2 Bft) 97 %
21.06.2014 21:10 17,0 C 17,0 C 17,5 C 58 % 1016,8 hPa 0,0 l/m 0,0 km/h (0 Bft) NO 45 0 min 0,000 mm 16 W/m 8,7 C 17,0 C 1,6 km/h (1 Bft) 100 %
21.06.2014 21:20 16,6 C 16,6 C 17,0 C 59 % 1016,9 hPa 0,0 l/m 0,0 km/h (0 Bft) NO 45 0 min 0,000 mm 11 W/m 8,6 C 16,6 C 1,6 km/h (1 Bft) 99 %
21.06.2014 21:30 16,2 C 16,2 C 16,6 C 60 % 1017,0 hPa 0,0 l/m 0,0 km/h (0 Bft) N 0 0 min 0,000 mm 7 W/m 8,4 C 16,2 C 0,0 km/h (0 Bft) 100 %
21.06.2014 21:40 15,6 C 15,6 C 16,2 C 64 % 1017,2 hPa 0,0 l/m 0,0 km/h (0 Bft) N 0 0 min 0,000 mm 0 W/m 8,8 C 15,6 C 0,0 km/h (0 Bft) 99 %
21.06.2014 21:50 15,1 C 15,1 C 15,6 C 66 % 1017,2 hPa 0,0 l/m 0,0 km/h (0 Bft) N 0 0 min 0,000 mm 0 W/m 8,8 C 15,1 C 0,0 km/h (0 Bft) 100 %
21.06.2014 22:00 14,4 C 14,4 C 15,1 C 69 % 1017,5 hPa 0,0 l/m 0,0 km/h (0 Bft) N 0 0 min 0,000 mm 0 W/m 8,8 C 14,4 C 0,0 km/h (0 Bft) 100 %
21.06.2014 22:10 13,9 C 13,9 C 14,4 C 71 % 1017,6 hPa 0,0 l/m 0,0 km/h (0 Bft) N 0 0 min 0,000 mm 0 W/m 8,7 C 13,9 C 0,0 km/h (0 Bft) 100 %
21.06.2014 22:20 13,6 C 13,6 C 13,9 C 72 % 1017,5 hPa 0,0 l/m 0,0 km/h (0 Bft) N 0 0 min 0,000 mm 0 W/m 8,6 C 13,6 C 0,0 km/h (0 Bft) 100 %
21.06.2014 22:30 13,4 C 13,4 C 13,6 C 72 % 1017,5 hPa 0,0 l/m 0,0 km/h (0 Bft) N 0 0 min 0,000 mm 0 W/m 8,5 C 13,4 C 0,0 km/h (0 Bft) 100 %
21.06.2014 22:40 13,1 C 13,1 C 13,4 C 72 % 1017,7 hPa 0,0 l/m 0,0 km/h (0 Bft) N 0 0 min 0,000 mm 0 W/m 8,2 C 13,1 C 0,0 km/h (0 Bft) 100 %
21.06.2014 22:50 12,9 C 12,9 C 13,1 C 72 % 1017,5 hPa 0,0 l/m 0,0 km/h (0 Bft) N 0 0 min 0,000 mm 0 W/m 8,0 C 12,9 C 0,0 km/h (0 Bft) 100 %
21.06.2014 23:00 12,7 C 12,7 C 12,9 C 72 % 1017,6 hPa 0,0 l/m 0,0 km/h (0 Bft) N 0 0 min 0,025 mm 0 W/m 7,8 C 12,7 C 0,0 km/h (0 Bft) 100 %
21.06.2014 23:10 12,6 C 12,6 C 12,7 C 73 % 1017,6 hPa 0,0 l/m 0,0 km/h (0 Bft) N 0 0 min 0,000 mm 0 W/m 7,9 C 12,6 C 0,0 km/h (0 Bft) 100 %
21.06.2014 23:20 12,4 C 12,4 C 12,6 C 74 % 1017,5 hPa 0,0 l/m 0,0 km/h (0 Bft) N 0 0 min 0,000 mm 0 W/m 7,9 C 12,4 C 0,0 km/h (0 Bft) 100 %
21.06.2014 23:30 12,2 C 12,2 C 12,4 C 74 % 1017,7 hPa 0,0 l/m 0,0 km/h (0 Bft) N 0 0 min 0,000 mm 0 W/m 7,7 C 12,2 C 0,0 km/h (0 Bft) 100 %
21.06.2014 23:40 11,9 C 11,9 C 12,2 C 75 % 1017,6 hPa 0,0 l/m 0,0 km/h (0 Bft) NO 45 0 min 0,000 mm 0 W/m 7,6 C 11,9 C 1,6 km/h (1 Bft) 99 %
21.06.2014 23:50 11,8 C 11,8 C 11,9 C 75 % 1017,6 hPa 0,0 l/m 0,0 km/h (0 Bft) NO 45 0 min 0,000 mm 0 W/m 7,5 C 11,8 C 3,2 km/h (1 Bft) 100 %
_ Min-Zeit 03:20 03:20 03:30 16:10 18:20 - 00:00 - - - - - 03:20 03:20 00:00 09:00
Minimum _ 8,2 C 8,2 C 8,2 C 43 % 1016,0 hPa - 0,0 km/h (0 Bft) - - - - - 6,0 C 8,2 C 0,0 km/h (0 Bft) 89 %
_ Max-Zeit 16:10 16:10 16:10 04:40 08:10 00:00 19:40 - - 07:50 16:00 11:50 09:30 16:10 19:40 04:30
Maximum _ 22,0 C 21,8 C 22,0 C 87 % 1018,3 hPa 0,0 l/m 7,6 km/h
NW (2 Bft)
- - 10 min 0,356 mm 914 W/m 10,6 C 21,8 C 22,5 km/h
NW (4 Bft)
100 %
Durchschnitt _ 15,1 C 15,0 C 15,2 C 66 % 1017,3 hPa #0,0 l/m 1,3 km/h (1 Bft) NW - #11:40 h #3,276 mm 318 W/m 8,2 C 15,1 C 5,5 km/h (1 Bft) 98 %
PRIVATE WETTERSTATION BILLIGHEIM-ALLFELD - www.neckar-odenwald-wetter.de - Holger Sonntag